Regional Weather Roundup
Issued by NWS Wilmington, NC

Home | Current Version | Previous Version | Text Only | Print | Product List | Glossary On
Versions: 1 2 3 4 5 6 7 8 9 10 11 12 13 14 15 16 17 18 19 20 21 22 23 24 25 26 27 28 29 30 31 32 33 34 35 36 37 38 39 40 41 42 43 44 45 46 47 48 49 50
000
ASUS42 KILM 140610
RWRILM
RWRILM
REGIONAL HOURLY WEATHER ROUNDUP
NATIONAL WEATHER SERVICE WILMINGTON NC
200 AM EDT MON JUL 14 2014

NOTE: "FAIR" INDICATES FEW OR NO CLOUDS BELOW 12,000 FEET WITH NO
SIGNIFICANT WEATHER AND/OR OBSTRUCTIONS TO VISIBILITY.

...............WFO WILMINGTON COUNTY WARNING AREA...............

......COASTAL NC AND SC COUNTIES......

CITY           SKY/WX    TMP DP  RH WIND       PRES   REMARKS
WILMINGTON       N/A     77  73  87 MISG      30.05F
SOUTHPORT      PTCLDY    79  71  77 SW7       30.06S
N MYRTLE BEACH CLEAR     77  72  84 SW8       30.06S
MYRTLE BEACH   CLEAR     75  72  88 SW6       30.07S

......INLAND NC AND SC COUNTIES.......

CITY           SKY/WX    TMP DP  RH WIND       PRES   REMARKS
LUMBERTON      PTCLDY    75  72  90 S7        30.04F
ELIZABETHTOWN  CLEAR     75  73  93 S6        30.05S
WHITEVILLE     PTCLDY    74  72  92 S5        30.05F
FLORENCE       PTCLDY    76  72  87 S7        30.05F
DARLINGTON     CLEAR     75  70  83 SW7       30.06F

....................REST OF NORTH CAROLINA......................

.........EASTERN NC.........

CITY           SKY/WX    TMP DP  RH WIND       PRES   REMARKS
CAPE HATTERAS  CLEAR     80  74  81 SW10      30.05F
JACKSONVILLE   CLEAR     73  70  88 SW6       30.05S
MOREHEAD CITY  PTCLDY    80  74  81 SW13      30.05F
KENANSVILLE    CLEAR     74  71  92 CALM      30.05S
NEW BERN       CLEAR     76  73  91 SW6       30.06S
ELIZABETH CITY CLEAR     77  73  87 S9        30.02F

.........CENTRAL NC.........

CITY           SKY/WX    TMP DP  RH WIND       PRES   REMARKS
RALEIGH DURHAM PTCLDY    78  70  76 SW12      30.02F
ROCKY MOUNT    CLEAR     77  72  84 S9        30.02F
ROANOKE RAPIDS NOT AVBL
FAYETTEVILLE   CLEAR     76  72  87 S9        30.03F
HOFFMAN        CLEAR     76  72  88 S7        30.05F

.........WESTERN NC.........

CITY           SKY/WX    TMP DP  RH WIND       PRES   REMARKS
CHARLOTTE      CLOUDY    77  68  73 S6        30.04F
GREENSBORO     MOCLDY    75  66  73 S8        30.02F
HICKORY        NOT AVBL
BOONE          NOT AVBL
ASHEVILLE      NOT AVBL

.....................REST OF SOUTH CAROLINA.....................

.........EASTERN SC.........

CITY           SKY/WX    TMP DP  RH WIND       PRES   REMARKS
CHARLESTON     PTCLDY    77  73  87 S3        30.07S
BEAUFORT MCAS  MOCLDY    79  75  87 W5        30.07S
HILTON HEAD    NOT AVBL

.........CENTRAL SC.........

CITY           SKY/WX    TMP DP  RH WIND       PRES   REMARKS
COLUMBIA       CLEAR     78  71  79 SW8       30.04F
ORANGEBURG     MOCLDY    75  72  90 SW5       30.07F
SUMTER SHAW    CLEAR     76  73  91 SW7       30.04F

.........WESTERN SC.........

CITY           SKY/WX    TMP DP  RH WIND       PRES   REMARKS
GREENVILLE     NOT AVBL
ROCK HILL      PTCLDY    75  69  81 SW7       30.05S
ANDERSON       PTCLDY    74  68  81 CALM      30.05F
CLEMSON        NOT AVBL
GREENWOOD      PTCLDY    76  66  71 S5        30.07S


...................COASTAL AND OFFSHORE REPORTS..................

................LOCAL PIERS AND NC RESERVE................


STATION/POSITION TIME  SKY/WX   TEMP    WIND        PRES    VSBY
                                AIR SEA DIR/SP/G
                 (UTC)          (F)     (DEG/KT/KT) (MB)    (MI)
JOHNY MRCER PIER 0600            78 84  230/  7/  8 1017.4R
NC RESRV MASNBRO 0500            76     240/  1     1018.0S
OCEAN CREST PIER 0600            80 85  220/ 16/ 20 1016.7S
SPRINGMAID  PIER 0600            77 84  230/  8/ 10 1018.1S


................COASTAL AND OFFSHORE BUOYS................


STATION/POSITION TIME  SKY/WX   TEMP    WIND        PRES    VSBY
                                AIR SEA DIR/SP/G
                 (UTC)          (F)     (DEG/KT/KT) (MB)    (MI)
DIMNDSHOAL 41025 0600                   VRB 16/ 19  1017.5F
WVE H/P(F/S)=  3/ 7 WND WVE H/P(F/S)=  2/ 3 SWL H/P/D(F/S/D)=  2/140/ 7

CAPE LOOKOUT     0500            80     210/ 11/ 13 1017.7F
ONSLOW BAY 41036 0600            80 82  230/ 16/ 17 1018.0F
WVE H/P(F/S)=  3/ 8 WND WVE H/P(F/S)=  2/ 4 SWL H/P/D(F/S/D)=  2/120/ 8

5 WRITEBCH 41038 0500            77 82  220/ 16/ 17 1018.3F
MASONBORO  41110 0600               82                N/A
WVE H/P(F/S)=  3/ 4 WND WVE H/P(F/S)=  3/ 4

WILM HARBR 41108 NOT AVBL
27WRITEBCH 41037 0500            77 82  230/ 16/ 17 1017.7S
FRYING PAN 41013 NOT AVBL
SUNST NRSH 41024 0500            80     220/ 16/ 17 1017.7F
CAPRS NRSH 41029 0500            81     200/ 12/ 16   N/A
EDISTO     41004 0600            81 82  210/ 14/ 17 1017.8F
WVE H/P(F/S)=  3/ 8 WND WVE H/P(F/S)=  2/ 4 SWL H/P/D(F/S/D)=  2/ 8



..........OFFSHORE BUOYS BEYOND 100 NM OFFSHORE...........
.....IN A TRIANGLE---HAT TO BERMUDA TO BAHAMAS TO HAT.....


STATION/POSITION TIME  SKY/WX   TEMP    WIND        PRES    VSBY
                                AIR SEA DIR/SP/G
                 (UTC)          (F)     (DEG/KT/KT) (MB)    (MI)
150E HAT   41001 NOT AVBL
W BERMUDA  41048 0519            80 82  170/  8/ 10 1020.5F
WVE H/P(F/S)=  3/ 9 WND WVE H/P(F/S)=  2/ 3 SWL H/P/D(F/S/D)=  3/140/ 9

ATLANTIC S 41049 0526            76 83   90/ 19/ 23 1020.0F
WVE H/P(F/S)=  5/ 8 WND WVE H/P(F/S)=  3/ 4 SWL H/P/D(F/S/D)=  3/110/ 8

E BAHAMAS  41046 0456            82 84   90/  8/ 10 1018.0
WVE H/P(F/S)=  4/ 8 WND WVE H/P(F/S)=  2/ 4 SWL H/P/D(F/S/D)=  3/120/ 8

NE BAHAMAS 41047 0538            83 85  130/ 10/ 12 1019.7F
WVE H/P(F/S)=  4/ 9 WND WVE H/P(F/S)=  2/ 4 SWL H/P/D(F/S/D)=  3/130/ 9

120E CANVRL41010 0600            82 83  160/ 14/ 16 1019.1F
WVE H/P(F/S)=  3/ 8 WND WVE H/P(F/S)=  2/ 4 SWL H/P/D(F/S/D)=  3/140/ 8


END


USA.gov is the U.S. government's official web portal to all federal, state and local government web resources and services.